Wind_Speed
38 39 40 40 40 40 40 40 40 39 39 39 39 40 41 42 42 43 44 44 46 47 48 47 45 44 43 42 40 39 38 38 38 38 37 37 38 38 40 41 42 42 43 44 46 48 50 51 54 57 60 63 67 71 75 78 80 83 85 86 87 88 88 78 62 49 38 28 19 12 9 14 22 26 26 24 24 23 24 28 32 31 29 26 21
39 39 40 40 40 40 40 40 40 40 39 39 39 39 40 40 41 42 43 43 44 45 46 48 48 48 47 46 45 43 42 40 40 39 39 38 38 39 40 41 43 44 45 46 47 49 50 52 54 57 60 63 67 71 74 77 80 83 86 87 88 89 88 77 60 48 37 27 18 11 9 13 21 27 28 27 26 25 26 28 30 31 30 26 21
41 41 41 42 42 41 40 39 39 40 39 39 40 40 40 40 40 40 41 42 43 43 44 45 46 47 48 48 48 47 46 44 42 41 40 40 40 41 41 42 43 45 46 48 49 50 51 53 54 56 59 63 66 70 74 77 80 83 86 87 88 90 87 74 59 47 36 27 18 10 8 12 20 28 30 30 28 27 27 29 30 30 30 27 23
43 42 42 43 43 43 42 41 40 40 40 40 41 41 41 41 41 41 40 40 41 42 43 43 44 45 46 48 49 49 49 49 47 46 44 43 43 43 43 44 45 46 47 49 50 51 52 53 54 56 59 62 66 70 73 77 80 83 86 87 88 90 87 72 57 46 36 26 18 9 7 12 19 28 32 32 32 29 28 29 30 30 29 27 25
42 42 43 43 43 43 43 43 43 42 42 42 42 43 42 42 42 42 41 40 40 40 41 42 43 43 44 46 47 49 49 50 50 50 49 49 47 46 46 46 46 47 49 49 50 51 52 53 54 56 59 62 65 69 73 77 81 83 86 87 89 91 86 71 56 45 35 26 18 8 7 12 18 27 33 34 34 33 29 29 30 30 29 28 26
41 41 42 42 42 42 43 44 44 44 44 44 45 45 45 45 44 44 43 42 41 40 40 41 42 43 43 44 45 47 49 49 50 50 51 52 52 51 50 49 49 49 49 50 50 51 52 53 54 56 59 62 65 69 73 77 81 84 86 87 89 91 86 70 55 44 34 26 17 8 6 11 17 25 33 35 36 35 33 31 31 30 29 28 27
41 41 41 40 40 41 41 42 43 44 45 46 46 47 47 47 46 46 46 46 44 42 41 41 42 43 43 43 44 45 47 48 49 50 51 52 53 54 55 54 52 51 50 50 51 52 53 54 54 56 58 61 64 68 72 77 81 83 86 87 88 91 86 71 55 44 34 26 17 8 4 10 15 23 32 36 36 37 36 34 32 31 30 29 27
41 41 41 40 40 40 40 41 41 42 44 45 46 47 47 48 47 47 48 48 47 46 45 43 42 42 42 42 43 43 45 47 48 49 50 52 53 54 56 57 56 55 54 53 53 53 54 54 54 56 58 61 64 68 72 76 80 83 85 87 88 91 86 71 56 45 35 26 18 9 3 8 15 22 30 35 37 37 37 36 35 33 32 31 28
41 41 41 41 41 41 40 41 41 42 43 44 45 46 47 48 47 47 48 49 49 49 48 47 45 43 42 41 41 42 43 45 47 48 49 51 52 54 56 57 58 58 58 56 55 54 54 54 55 56 59 61 64 68 72 76 80 83 85 87 88 90 87 73 58 46 36 27 19 11 3 7 13 19 27 34 37 37 37 37 36 35 35 33 30
40 41 42 42 42 41 41 41 42 42 43 44 45 45 46 47 47 47 47 48 49 50 50 50 49 46 44 42 41 41 42 43 45 47 49 50 51 53 55 56 57 58 59 59 58 56 55 55 55 57 59 61 64 67 71 75 80 83 85 86 87 90 87 74 59 48 37 29 21 12 4 5 12 18 25 32 37 38 37 36 36 36 36 35 32
41 41 42 42 42 42 42 42 43 43 44 45 46 45 45 46 47 47 47 48 49 50 51 52 52 51 49 46 43 42 41 42 44 46 48 50 51 53 54 55 56 58 60 61 60 59 56 55 55 56 58 60 63 66 70 75 79 82 85 86 87 89 88 76 61 50 39 30 23 14 6 3 11 17 22 30 35 38 38 37 35 35 35 35 34
42 42 42 42 42 42 42 43 43 44 44 45 46 47 46 47 47 47 48 49 50 50 51 52 53 53 53 51 49 46 43 42 43 45 47 49 51 53 54 54 56 57 59 62 62 61 58 56 55 55 57 60 62 66 70 74 78 82 84 86 86 88 88 78 64 52 41 32 25 16 7 2 9 15 20 26 33 37 38 37 36 35 35 34 34
43 44 44 44 43 42 41 42 43 44 45 45 46 47 47 47 47 47 48 49 51 51 52 52 53 54 54 54 54 52 48 44 43 44 47 50 52 53 53 54 55 56 59 61 63 63 61 58 56 56 57 59 61 65 69 73 77 81 83 85 86 87 88 80 66 54 44 34 27 18 9 2 7 13 17 22 29 35 38 38 37 36 35 34 33
45 46 46 46 45 43 41 41 42 43 45 45 46 46 47 48 48 48 48 49 51 52 53 53 54 54 55 56 56 56 54 50 46 45 47 50 52 53 53 54 54 55 57 60 62 63 62 60 57 57 57 59 61 64 68 72 76 79 82 85 86 86 87 82 69 57 46 36 28 20 11 3 4 11 16 21 26 32 36 38 37 36 36 35 34
47 48 48 48 47 44 42 40 40 41 43 44 46 46 46 47 48 48 48 48 51 53 54 54 55 55 55 56 57 57 57 55 52 49 49 50 52 52 53 54 54 54 56 59 61 63 63 61 59 58 58 59 61 63 66 70 74 78 81 83 85 86 86 82 72 59 48 39 30 22 13 4 4 11 17 21 25 29 33 36 38 37 36 35 34
49 50 50 48 47 45 42 39 38 38 40 42 44 46 46 47 47 48 47 47 51 54 55 55 56 56 56 56 56 57 58 58 57 54 53 52 52 53 53 53 54 54 55 57 60 62 64 63 60 58 58 60 60 62 65 69 73 77 80 82 83 84 85 83 75 62 51 41 32 24 15 6 3 10 16 20 24 28 31 34 37 38 37 35 34
49 50 50 49 47 45 42 40 38 38 40 42 43 44 46 46 47 47 47 49 52 55 55 55 56 57 57 58 58 58 58 58 58 57 56 54 53 53 53 53 53 53 54 56 58 61 63 63 61 59 59 60 60 60 63 67 71 75 78 80 82 83 83 82 76 65 54 44 35 26 18 8 2 8 14 18 22 27 31 32 35 37 37 36 35
50 50 49 49 47 45 43 42 42 42 44 45 44 44 45 46 47 48 49 51 53 55 55 56 56 57 58 58 59 59 59 58 59 59 58 56 54 53 52 52 52 53 54 55 57 60 62 63 61 58 58 59 58 58 61 65 69 73 76 78 80 81 82 81 77 68 57 47 38 29 20 11 4 5 10 16 20 25 30 33 34 35 36 37 36
49 50 50 49 48 47 47 47 47 47 48 47 45 45 45 46 47 49 50 52 54 55 55 56 57 58 58 59 59 59 59 59 60 60 60 58 56 53 52 51 51 51 53 54 55 58 61 62 61 57 56 58 57 57 59 63 66 70 74 76 78 80 80 80 77 70 60 50 41 32 23 15 7 3 7 13 19 23 27 32 35 35 35 36 36
49 50 51 51 51 51 51 51 51 51 51 49 48 47 47 47 48 50 51 53 55 56 57 57 57 58 59 60 60 60 59 60 61 61 61 61 58 54 52 51 50 50 51 52 54 57 59 61 60 56 54 56 57 56 57 61 64 68 72 75 76 78 79 78 77 72 63 53 44 35 26 18 10 4 5 11 16 21 25 29 34 37 37 36 35
50 51 52 53 53 54 55 55 55 55 54 52 51 49 48 48 49 51 53 55 56 57 58 58 58 59 60 61 61 60 60 61 61 62 62 62 60 56 52 50 49 48 49 51 53 55 57 59 59 55 52 54 56 56 56 59 62 66 70 73 74 76 77 77 76 73 66 56 47 39 30 21 13 6 4 8 13 18 23 27 32 36 38 37 36
52 53 54 55 56 56 58 59 60 59 57 55 53 51 51 50 51 52 54 55 57 58 59 59 60 60 60 61 62 61 61 61 62 62 63 62 61 57 52 49 48 48 47 49 51 54 55 57 57 55 52 52 55 56 55 57 60 64 67 71 73 74 75 76 75 73 68 59 51 42 33 24 16 9 4 6 10 16 21 26 30 33 36 39 39
54 55 56 58 58 59 60 61 62 62 60 58 55 54 54 54 54 55 55 56 58 59 59 60 61 61 61 61 62 62 62 62 62 62 63 63 61 58 52 48 48 47 46 46 50 52 53 55 56 55 52 51 53 55 55 55 58 61 65 69 71 72 73 74 73 72 69 62 54 45 37 28 20 12 7 4 8 13 18 23 28 31 34 38 40
57 58 59 60 61 62 62 63 64 63 61 60 58 57 58 57 57 57 57 58 59 60 60 61 62 62 63 63 63 63 62 62 62 62 62 62 61 58 53 47 46 46 44 44 47 50 51 53 54 54 52 51 52 53 53 54 55 59 63 67 69 71 72 72 72 71 69 64 56 48 41 33 24 16 9 5 6 11 16 21 25 29 32 36 39
59 60 61 62 63 64 64 65 65 64 62 61 60 60 61 60 60 60 60 59 60 61 62 63 64 65 66 66 64 63 63 62 62 61 61 61 60 58 53 47 44 44 43 43 45 48 49 50 52 53 52 51 50 51 52 52 53 56 60 64 67 68 69 70 70 70 69 66 59 50 43 36 28 20 12 7 6 9 13 18 22 26 31 34 37
59 61 62 63 65 66 66 67 67 66 64 63 63 63 63 62 62 62 62 62 63 63 64 65 67 68 69 69 66 64 63 61 61 61 60 59 58 57 54 47 42 42 42 41 43 46 47 48 50 52 52 51 50 50 50 50 51 53 57 61 65 66 67 67 68 68 68 66 61 53 45 39 31 24 16 10 7 8 11 15 19 24 28 32 34
59 61 62 64 65 66 67 68 69 68 67 67 66 66 65 65 64 65 66 65 66 66 67 69 70 71 72 71 68 66 63 61 60 60 59 57 56 57 55 47 41 40 40 40 42 44 45 46 48 50 51 52 51 49 47 48 49 51 54 59 63 64 65 65 66 67 67 66 63 55 47 41 34 27 20 14 9 8 10 13 16 20 25 29 32
61 61 62 64 65 66 67 67 68 68 68 69 69 68 68 67 67 68 69 69 70 71 72 72 73 74 74 73 70 67 63 61 59 59 58 56 54 55 55 47 39 38 39 39 40 43 43 44 46 48 49 51 51 48 45 45 47 49 52 56 60 63 63 63 64 65 65 65 63 58 49 43 37 30 22 16 12 9 9 11 14 17 21 25 29
62 63 64 64 65 66 67 68 68 68 68 69 69 69 69 69 69 69 70 72 75 77 77 76 76 76 76 75 71 67 63 61 59 57 56 55 53 54 54 46 38 37 38 38 39 40 40 41 44 46 48 50 50 47 44 43 44 47 49 53 58 61 62 61 62 63 64 64 63 59 52 45 40 33 26 19 14 10 9 9 12 15 18 21 25
65 66 67 67 68 69 70 71 71 70 70 70 69 69 69 70 71 72 74 76 78 79 80 80 80 79 78 76 71 66 62 60 59 56 55 54 52 53 52 44 36 36 38 37 37 39 38 39 42 44 46 48 48 46 42 41 42 45 47 51 55 58 60 59 59 61 62 62 62 60 54 47 42 36 29 22 16 11 9 8 10 13 15 19 22
68 70 71 71 72 74 75 76 75 74 73 71 69 69 70 72 74 76 77 79 80 81 83 84 84 82 79 75 70 65 61 59 58 56 54 53 52 52 50 41 34 34 36 36 36 37 37 37 39 42 44 46 46 44 41 39 40 43 45 48 52 56 58 57 57 59 61 61 61 60 55 49 43 38 32 25 18 13 9 8 8 10 13 16 19
71 73 73 75 77 78 79 79 78 77 75 73 71 71 71 73 76 79 81 83 85 85 86 86 85 83 79 73 67 63 59 58 57 55 54 53 51 51 48 38 31 32 35 35 35 36 35 36 37 40 42 43 44 43 40 38 39 41 43 46 49 53 56 56 55 57 60 61 61 60 56 50 44 40 35 28 20 15 11 8 7 9 11 13 16
74 75 76 78 80 82 82 81 79 77 76 75 74 75 75 76 79 83 87 88 89 88 87 87 85 81 76 69 64 59 57 57 56 55 54 53 51 50 44 34 29 31 34 34 34 35 34 34 36 38 39 41 42 41 39 37 37 39 41 43 47 51 54 54 53 54 57 60 60 60 58 52 46 41 36 30 23 17 13 10 8 7 8 11 13
77 78 80 82 83 84 84 82 80 79 78 78 78 79 79 81 84 88 91 92 91 89 88 85 81 77 71 66 61 57 55 55 55 54 54 52 50 47 39 30 27 30 32 32 33 34 33 33 34 35 37 38 39 40 39 37 36 37 39 41 44 48 52 53 52 53 55 58 59 59 58 54 48 42 38 32 25 18 14 11 8 6 6 8 11
80 82 84 85 85 86 85 84 82 81 80 80 80 81 83 86 90 92 93 92 91 89 86 81 76 72 67 63 59 56 54 54 54 54 54 51 47 42 34 27 26 27 28 29 32 33 32 33 33 34 35 36 37 37 38 37 36 36 37 39 41 45 49 51 51 51 53 57 59 58 58 56 50 43 39 34 28 21 15 12 9 6 4 6 9
84 86 87 88 88 88 87 86 84 83 82 82 83 84 87 91 93 94 92 90 88 85 80 76 71 67 64 61 58 56 54 53 52 52 51 47 41 36 29 25 24 25 26 28 31 32 32 32 32 32 33 34 34 35 37 37 36 34 34 36 39 43 47 49 50 50 51 55 58 57 57 56 52 45 40 36 30 24 18 13 9 6 3 3 5
88 89 89 90 91 91 89 87 86 85 85 85 86 88 90 93 94 93 89 85 81 78 74 70 66 63 61 60 57 54 53 51 49 48 46 41 35 30 26 25 24 25 25 27 30 31 31 31 31 30 31 31 32 34 35 37 36 34 32 34 37 40 44 47 48 48 49 53 56 57 56 56 53 48 42 37 33 27 20 15 11 7 4 2 2
91 92 92 93 94 92 90 88 87 87 88 89 90 91 91 91 91 88 84 79 74 71 68 65 62 60 58 56 53 50 48 46 44 42 39 34 29 26 26 25 24 25 26 27 28 29 30 31 30 29 29 30 31 32 34 36 36 33 31 32 35 38 42 44 46 47 48 51 55 57 56 55 54 50 44 39 35 30 23 18 13 8 4 2 1
93 93 95 96 95 92 90 89 89 90 91 92 92 91 89 86 84 80 77 73 68 65 63 60 57 54 52 49 47 44 41 39 38 36 33 29 26 26 26 25 24 25 26 25 26 27 29 30 29 28 29 30 31 31 33 34 34 32 29 30 32 35 39 42 43 45 46 49 52 56 57 55 54 52 47 41 37 32 27 21 15 10 6 3 0
94 95 97 97 96 93 91 91 91 92 93 93 91 88 84 79 75 72 70 67 63 60 57 54 51 48 45 43 42 38 35 34 33 31 29 26 25 27 28 26 25 25 25 24 25 27 29 29 27 27 29 30 30 31 31 33 33 31 28 28 30 33 37 40 41 43 45 47 50 54 56 56 55 53 50 44 39 35 30 24 18 13 8 5 2
95 96 98 97 95 93 92 93 94 94 93 90 87 82 77 71 67 64 62 60 57 53 51 49 47 44 41 40 38 34 31 30 30 29 27 25 26 29 29 26 24 25 25 24 25 27 28 27 26 27 29 30 30 30 30 31 31 29 27 26 28 31 35 38 40 41 43 45 48 52 55 56 55 54 52 47 41 36 32 28 22 16 11 7 3
96 97 97 95 92 92 92 93 93 92 88 84 79 75 70 65 60 57 55 53 51 49 46 45 44 41 39 38 35 30 27 28 29 28 26 26 28 30 30 27 25 26 27 26 26 26 24 24 26 28 29 30 30 30 29 29 29 28 26 25 26 28 32 36 38 39 41 43 46 49 53 55 56 55 54 50 45 39 34 30 25 19 14 9 5
98 98 95 92 90 91 93 93 90 86 81 76 72 67 63 58 54 51 49 49 47 45 43 42 41 38 36 35 32 27 25 28 29 28 26 26 30 32 31 27 26 28 28 27 26 24 22 23 26 29 29 30 30 30 29 28 27 26 25 24 24 26 30 34 37 37 39 41 44 47 50 53 55 55 55 53 49 43 37 32 28 23 17 12 8
98 95 92 91 92 93 92 89 84 78 73 69 64 60 56 52 48 47 46 45 44 42 40 38 37 35 33 32 30 25 24 28 29 27 25 28 32 33 31 29 27 27 27 26 25 23 21 23 27 29 30 30 30 30 29 26 25 25 25 24 23 24 28 32 35 36 37 39 42 44 48 51 54 55 55 54 51 47 40 35 31 27 22 16 11
94 92 91 92 93 91 88 82 77 71 66 61 57 54 51 47 45 44 43 41 40 39 36 34 33 32 30 30 27 23 24 28 28 26 27 31 33 33 32 29 28 27 27 26 25 23 21 23 26 28 29 30 30 29 27 25 23 24 25 23 22 23 25 29 33 35 36 37 39 42 45 49 52 54 55 55 53 50 44 38 33 29 25 20 15
91 91 92 92 89 85 80 75 70 64 59 54 51 49 46 44 42 42 40 38 36 35 33 31 30 28 27 26 24 21 23 27 28 27 29 32 34 34 33 31 29 29 28 27 26 23 21 23 26 28 29 30 30 28 26 24 23 24 24 22 21 21 23 27 31 34 34 35 37 40 42 46 49 52 54 55 54 53 48 41 35 31 28 24 18
92 92 91 88 83 78 72 67 62 57 53 49 46 44 43 41 40 39 38 35 33 32 30 29 27 26 24 24 22 20 23 27 28 27 30 33 34 35 35 33 31 30 29 28 26 23 21 23 26 28 29 30 29 27 25 24 23 23 23 21 20 20 21 25 29 32 33 34 35 37 40 43 46 49 52 54 55 54 51 46 39 33 30 26 22
92 90 86 82 77 71 65 59 54 51 47 44 42 41 40 39 38 37 35 32 31 30 29 27 25 24 22 22 20 19 22 26 27 28 31 33 35 36 36 34 32 31 30 28 26 23 21 23 27 29 30 29 27 26 25 24 23 22 22 20 19 18 20 23 27 31 33 33 34 35 38 40 43 47 50 52 54 54 54 50 43 36 31 28 24
89 84 79 75 70 64 58 53 49 46 43 41 40 38 37 36 35 34 32 30 29 28 27 26 24 22 21 20 18 19 23 27 28 29 31 33 34 36 36 35 33 32 31 29 26 23 22 24 27 29 30 28 26 25 26 24 22 22 22 20 18 17 19 22 26 30 32 32 33 34 36 38 41 44 47 50 52 53 54 53 49 41 33 29 26
82 77 73 69 63 58 53 49 45 43 41 39 38 36 34 33 31 30 29 28 28 27 25 23 22 21 20 19 18 19 23 27 29 29 31 32 34 36 36 35 34 33 32 31 28 25 24 25 28 29 29 27 26 26 26 24 22 21 21 20 17 16 17 20 24 28 31 32 32 32 34 36 38 41 44 47 50 52 53 54 53 48 39 31 27
75 70 67 63 58 53 49 46 43 41 39 37 36 34 32 29 27 25 25 26 27 26 24 22 20 20 20 19 19 20 24 27 29 29 30 32 35 37 37 36 35 35 34 34 32 28 25 26 28 29 28 27 26 26 25 23 21 22 21 19 17 16 16 19 22 26 30 32 32 32 32 34 36 38 41 44 47 50 52 53 54 52 46 37 30
Wind_Direction
20 20 20 21 21 21 21 21 21 21 21 20 20 19 19 19 19 19 18 18 18 17 17 15 13 10 5 1 356 352 350 350 350 350 350 351 350 350 350 349 349 348 348 347 346 345 345 346 347 348 349 349 350 350 350 349 348 347 347 347 348 350 350 349 348 345 341 336 324 300 255 218 203 193 189 188 187 187 185 183 185 189 188 187 192
20 18 18 18 18 18 17 16 16 17 16 16 16 16 15 16 16 15 15 15 15 14 14 14 14 13 11 8 5 359 354 350 348 348 348 349 349 348 348 348 348 347 347 347 347 346 346 346 347 347 348 349 350 350 350 349 348 347 347 348 349 350 351 350 349 347 343 338 329 301 252 216 202 194 189 188 188 186 186 185 187 192 195 198 202
22 20 18 18 18 17 15 14 13 12 13 12 12 12 13 13 13 12 12 12 12 12 12 11 11 11 11 10 10 7 4 0 356 352 350 349 348 347 346 345 345 346 346 346 346 346 346 347 347 347 347 348 350 350 350 349 348 347 348 349 350 351 352 351 350 348 344 340 334 307 252 214 199 194 189 187 188 187 187 188 189 191 196 202 206
21 21 20 20 19 18 17 15 13 11 10 9 8 9 10 10 10 9 9 9 10 10 9 9 8 8 7 7 8 7 7 7 5 2 358 354 350 346 344 343 343 344 344 344 345 345 346 347 347 347 347 348 350 350 350 349 348 348 348 349 351 352 353 352 351 349 346 342 338 318 250 211 196 193 190 186 187 188 188 189 191 193 195 198 203
17 18 18 18 18 18 17 17 15 13 11 10 9 9 8 8 7 6 6 6 6 7 7 7 6 5 4 4 4 4 4 5 5 5 4 1 357 350 345 342 341 341 342 343 343 344 346 347 347 347 347 348 350 350 350 349 348 349 349 350 351 353 354 354 353 351 348 345 342 328 246 212 195 192 191 187 186 188 189 189 190 193 195 196 199
12 12 13 13 14 15 15 15 15 15 13 12 12 12 11 10 7 5 4 3 3 3 3 3 2 2 2 1 1 1 1 1 1 2 2 2 2 359 354 349 344 342 342 343 344 344 345 346 347 347 347 348 349 350 350 349 349 349 350 351 352 354 355 355 355 353 351 348 345 334 246 214 196 190 191 189 186 188 190 190 189 190 192 195 199
7 7 7 7 8 8 10 11 11 11 11 11 11 12 13 13 11 9 6 4 2 1 360 359 358 358 360 360 358 358 358 358 359 358 358 358 360 0 360 357 353 349 346 345 345 345 345 346 346 346 347 348 349 350 350 349 349 350 351 352 353 355 356 356 356 355 353 351 348 338 255 214 196 189 191 190 187 187 189 190 190 188 187 191 197
2 2 2 2 2 2 3 5 6 6 6 6 7 8 9 10 11 11 9 7 5 2 -0 358 356 356 357 358 357 356 355 355 356 356 356 355 356 357 358 358 358 355 351 348 346 346 345 345 346 346 347 349 349 350 350 350 350 351 352 353 354 356 357 358 358 357 356 354 352 344 278 211 197 190 190 191 189 186 188 191 191 190 189 189 192
356 356 357 357 357 358 358 359 359 360 360 0 1 2 3 5 6 8 8 8 6 4 2 0 358 355 355 356 356 355 353 353 353 354 354 353 353 353 354 356 357 356 354 351 348 346 345 346 346 347 348 349 350 350 350 350 350 351 352 353 355 357 358 359 359 359 359 358 356 350 314 208 198 191 189 191 191 188 187 191 192 192 193 192 191
353 352 353 353 353 353 353 354 354 354 354 354 356 357 358 359 1 2 3 4 3 3 3 2 1 358 356 355 354 354 352 351 351 351 352 352 351 351 351 353 354 356 355 353 351 348 346 346 347 347 348 350 350 350 350 350 351 352 353 354 355 357 359 360 1 1 1 2 1 355 340 205 198 194 189 190 193 190 188 190 191 192 194 195 194
351 350 350 349 349 349 349 349 350 350 349 349 350 351 352 354 356 357 358 359 359 360 -0 0 0 0 359 357 354 353 352 351 350 350 350 350 350 349 349 350 352 353 354 354 353 350 348 347 347 348 349 350 350 350 350 351 352 353 354 354 355 358 359 0 2 2 2 4 4 359 348 208 197 197 192 189 192 193 191 191 190 192 194 195 196
349 349 348 348 347 346 346 346 346 346 347 346 346 347 347 349 350 352 353 354 355 355 356 357 358 358 358 358 356 355 353 351 350 349 349 349 349 348 348 348 349 351 352 353 353 352 350 349 349 349 350 350 351 350 350 351 352 353 354 354 355 358 359 1 3 3 4 5 6 2 353 241 199 200 196 190 190 193 194 193 192 192 192 193 195
346 346 346 346 345 344 343 343 343 343 344 344 344 344 344 345 346 347 349 351 352 352 352 353 354 354 355 355 356 356 355 352 349 348 348 348 348 347 347 346 347 348 350 351 352 352 351 350 350 350 351 351 352 351 351 351 353 354 354 354 355 357 359 2 3 4 4 6 7 4 357 311 202 201 200 194 191 192 195 196 195 195 193 192 194
342 342 342 342 343 343 341 341 341 340 341 342 343 343 343 342 343 343 345 347 349 349 349 349 350 351 351 352 353 354 355 353 350 347 345 345 347 346 346 345 345 346 347 349 351 351 351 350 350 351 351 351 353 352 351 352 353 354 355 354 355 357 359 2 4 5 5 7 8 6 1 348 196 198 201 198 194 193 195 196 197 198 197 195 195
340 340 339 339 339 340 339 339 339 339 340 340 341 341 342 342 341 341 342 344 346 347 346 346 346 347 348 349 349 351 352 352 352 349 344 343 345 346 345 345 345 344 345 347 349 350 350 350 350 351 351 352 354 353 352 352 353 354 355 355 354 356 358 1 4 5 6 7 9 8 4 4 183 193 200 201 198 197 196 196 197 200 201 198 197
339 339 339 338 337 337 336 336 337 338 339 339 339 340 341 341 341 340 340 342 343 344 344 343 343 344 345 345 346 347 349 350 351 350 346 343 343 345 344 344 344 343 343 344 346 348 349 350 350 350 351 352 354 354 353 352 353 355 355 355 354 355 358 1 4 6 6 8 9 9 5 3 190 197 201 202 201 200 200 199 198 200 203 202 199
338 339 338 338 337 336 335 334 335 336 337 338 338 338 339 340 340 340 339 339 340 341 342 341 340 341 342 343 344 344 346 347 348 349 347 344 342 342 343 342 343 342 341 342 344 345 347 349 350 350 351 353 354 355 354 353 354 355 355 354 354 354 357 0 3 5 7 8 10 10 5 357 258 208 205 203 202 201 202 203 202 201 203 204 203
337 338 338 337 336 335 333 332 332 332 333 334 335 335 336 338 339 340 338 338 339 340 340 339 338 338 339 340 341 341 342 343 345 346 347 345 342 340 340 341 341 341 341 340 341 342 345 347 349 351 352 353 354 355 355 353 354 355 355 354 354 354 356 359 2 5 7 9 10 10 6 358 326 232 212 205 203 203 203 205 207 207 206 206 206
337 337 337 336 335 333 331 330 328 328 329 331 332 333 334 336 338 338 338 338 339 339 339 338 337 336 337 337 338 339 339 340 341 342 344 344 343 339 338 339 339 340 340 339 338 339 342 346 348 351 353 354 355 356 355 354 354 355 355 354 354 354 355 358 2 5 7 9 10 10 7 360 343 272 222 209 206 205 205 205 207 210 211 210 209
336 335 335 335 334 333 331 330 328 327 327 328 329 330 332 333 334 336 336 337 338 338 337 337 337 336 335 335 335 336 336 337 337 339 340 342 342 340 337 336 337 338 338 338 337 337 339 343 347 350 352 354 355 356 356 355 355 355 355 354 354 354 354 357 1 4 6 8 10 11 9 1 350 315 233 215 208 207 207 207 208 210 214 215 214
333 333 333 332 332 331 330 330 328 327 326 326 326 327 329 330 331 332 334 336 336 336 336 336 336 336 335 333 333 333 334 334 334 335 337 338 340 339 336 334 335 336 337 337 336 335 337 341 345 348 350 353 354 355 356 355 355 355 355 354 354 354 354 356 360 4 6 8 9 11 10 4 353 335 255 220 212 208 207 208 210 211 213 216 218
330 330 330 329 329 329 329 329 328 327 325 324 324 325 325 327 328 330 332 334 334 334 333 333 334 335 334 332 331 331 331 331 331 332 333 335 337 338 336 332 332 333 334 336 335 334 335 338 342 346 348 351 353 355 355 355 355 355 355 354 354 353 354 356 359 2 6 7 8 10 11 7 357 342 299 228 214 210 208 209 211 212 213 215 218
327 327 327 327 327 327 327 328 328 327 325 323 322 322 323 324 325 327 330 332 331 331 331 331 331 332 332 331 329 328 328 329 328 329 330 331 334 336 335 331 329 330 332 334 334 333 333 336 340 343 347 349 351 353 355 355 354 355 355 354 353 353 354 356 358 1 5 7 7 9 10 9 2 347 321 255 218 210 208 209 211 212 214 215 217
325 325 325 325 325 325 326 327 327 327 325 323 322 321 322 323 323 325 327 328 328 327 328 329 329 329 330 329 328 326 325 326 326 326 327 329 330 333 334 329 326 327 330 332 333 332 332 335 338 341 345 347 348 351 355 354 354 355 355 354 353 353 354 356 358 1 4 6 7 8 9 9 5 354 333 289 235 214 209 210 211 211 213 215 216
324 324 323 323 323 324 324 325 326 326 325 323 322 321 321 322 323 323 324 324 324 324 326 327 326 327 327 328 326 324 323 323 323 323 325 326 327 330 332 328 324 325 328 330 331 331 332 334 336 339 342 345 346 349 353 354 354 354 355 354 353 353 354 356 358 0 3 5 6 7 8 8 6 358 344 312 260 226 213 211 211 211 213 214 215
322 322 322 322 322 322 322 323 324 324 323 323 322 321 321 322 323 322 322 322 321 322 323 324 324 324 325 326 325 323 322 321 321 321 323 324 325 327 329 327 322 322 326 328 329 329 331 332 334 337 340 342 344 348 352 354 353 354 355 354 353 353 354 356 358 0 2 4 6 6 7 9 7 0 350 329 288 244 223 216 213 211 213 215 216
320 320 320 320 321 321 321 321 322 321 321 321 321 321 322 323 323 321 321 320 319 319 321 322 322 322 323 323 322 321 320 319 319 319 321 322 323 324 326 325 320 319 323 325 326 327 329 331 332 335 338 340 342 346 351 354 353 354 354 354 353 353 354 356 359 1 2 4 5 5 6 9 8 3 354 339 313 271 237 222 216 213 213 215 216
318 318 318 318 319 319 319 319 319 319 319 319 320 321 322 322 322 320 319 318 318 318 319 320 320 321 321 321 320 319 318 317 317 317 318 320 320 322 324 322 316 316 320 323 323 325 327 329 330 333 336 338 341 345 350 353 354 353 354 354 353 353 353 355 359 1 2 3 5 5 5 8 9 6 359 347 329 299 261 235 222 217 215 215 217
317 317 317 317 317 317 317 317 317 317 317 318 319 320 320 320 319 318 317 316 316 317 317 317 318 318 319 318 317 317 315 314 314 314 316 317 318 319 321 319 312 312 317 319 319 321 324 326 328 331 333 336 340 345 349 353 354 353 354 353 353 353 354 355 359 2 2 3 4 5 5 6 8 8 3 354 340 318 285 253 232 223 218 216 217
316 316 316 316 316 316 317 317 317 316 317 318 319 319 318 317 316 315 315 315 315 315 315 315 316 316 316 315 314 313 312 311 311 312 313 315 315 317 318 315 307 307 312 314 314 317 321 324 326 329 331 335 340 344 347 352 354 353 353 353 353 353 354 355 359 2 3 3 4 6 6 6 7 8 6 359 348 332 305 271 245 231 223 219 217
315 316 316 315 315 316 317 317 316 316 317 318 318 317 315 314 313 313 314 314 314 314 314 313 313 313 313 312 311 310 309 308 308 309 310 312 312 313 314 308 300 301 306 309 310 313 318 322 325 327 328 333 340 344 346 351 354 353 353 353 352 352 353 355 359 2 4 4 4 6 7 6 7 8 7 2 354 342 322 291 258 237 227 223 219
315 316 315 315 315 316 317 316 316 316 317 317 316 314 313 312 313 314 314 314 314 313 312 311 311 311 310 309 308 307 305 305 305 306 307 308 308 310 309 302 293 296 302 305 307 310 315 319 322 324 327 332 339 343 345 349 352 353 353 353 352 352 353 355 358 3 6 5 4 6 7 7 7 8 7 4 358 348 335 313 279 248 232 224 219
315 315 315 315 315 316 316 316 315 315 315 314 313 312 312 313 314 314 314 313 312 311 310 309 308 308 307 306 305 304 303 302 302 303 304 304 305 306 304 293 285 291 298 301 304 308 312 316 319 321 325 331 337 341 344 347 350 352 352 352 352 351 352 355 358 4 7 7 5 6 8 8 8 8 8 6 1 354 343 329 304 267 241 228 220
315 314 314 315 315 315 315 315 315 314 313 312 312 312 313 313 314 313 312 311 310 309 308 307 306 306 304 303 302 301 300 300 299 300 301 300 301 302 296 282 277 287 294 298 302 305 308 313 316 318 324 330 335 339 342 345 348 350 350 351 351 351 352 354 358 4 8 9 7 6 8 9 9 9 9 7 3 358 351 340 322 290 250 233 224
313 313 314 314 314 315 315 314 313 312 311 311 312 312 312 312 312 311 310 309 308 307 306 305 304 303 301 301 300 299 298 297 297 297 297 296 297 296 286 269 270 283 289 292 297 300 304 308 311 315 322 328 332 336 341 344 345 347 349 350 351 351 351 354 358 4 9 11 9 8 8 9 9 10 10 8 5 360 355 349 334 311 263 234 228
312 312 313 313 314 315 314 313 312 311 311 311 311 311 310 310 310 309 308 307 305 304 303 302 301 300 299 298 297 297 296 295 295 294 293 292 292 287 271 256 263 274 279 283 289 294 299 304 307 312 320 325 329 333 339 342 344 345 347 349 350 351 351 353 358 4 10 13 12 9 8 9 10 11 11 10 7 2 358 354 342 323 291 243 228
312 312 312 313 314 314 314 312 311 310 310 310 309 309 309 309 308 307 305 304 303 301 300 299 298 297 296 295 295 295 294 293 292 290 288 286 284 273 253 245 255 265 269 275 282 288 295 299 304 310 317 322 327 331 336 340 342 343 345 347 349 350 351 353 357 3 10 14 14 12 10 10 11 12 11 11 10 6 2 358 348 331 315 276 226
312 312 313 314 314 314 313 311 310 309 309 309 309 308 308 307 306 305 303 302 300 299 297 296 295 294 294 293 293 293 292 290 288 285 282 279 272 255 238 236 249 259 263 269 277 284 290 294 300 308 315 320 324 328 332 337 340 341 343 346 348 350 350 352 356 3 10 15 16 14 12 11 12 13 13 13 12 9 6 2 354 342 329 314 228
312 312 313 314 314 313 311 310 309 309 309 309 308 308 307 306 305 303 302 300 298 297 296 295 294 293 292 292 291 290 289 287 283 279 275 269 256 237 226 230 244 253 257 264 272 278 284 290 298 307 313 317 321 325 329 334 338 340 342 344 347 349 349 350 355 2 9 15 18 17 15 13 12 13 14 14 13 12 10 6 -0 352 342 333 296
312 313 314 314 313 312 310 310 309 309 309 308 308 307 306 305 304 302 300 298 297 296 295 295 294 293 292 291 289 288 286 282 277 272 266 256 240 225 219 225 237 247 253 260 266 272 279 287 296 304 309 313 317 321 325 331 336 339 340 342 346 348 348 349 353 0 8 15 18 19 18 15 14 14 15 15 15 14 13 10 5 359 352 347 5
312 313 313 313 311 310 310 310 310 309 308 308 307 306 305 304 302 300 298 297 296 296 296 295 294 294 292 289 288 286 283 276 269 263 256 245 229 218 215 220 232 242 249 255 262 269 277 286 294 300 304 308 313 317 321 327 334 338 339 340 344 347 348 348 351 358 7 14 19 21 20 19 16 15 15 16 17 16 15 13 10 6 360 356 10
312 313 312 311 310 309 310 310 309 308 308 307 307 305 304 303 301 299 297 296 296 296 296 295 294 293 291 288 286 283 277 269 261 255 247 234 220 212 211 216 227 238 244 250 257 264 273 283 290 294 298 304 309 313 317 324 331 336 338 338 342 346 347 347 349 356 4 12 18 21 22 21 20 17 16 17 17 17 17 16 14 11 7 4 10
311 311 310 309 309 310 310 309 308 308 308 307 306 304 302 302 301 299 297 297 297 297 296 295 293 292 289 285 283 279 270 261 256 250 240 225 214 209 209 212 224 236 242 246 252 259 268 279 284 288 294 300 306 311 315 321 329 336 337 337 339 344 346 346 347 353 1 9 16 21 23 23 22 21 19 18 18 18 18 18 18 16 12 10 13
311 311 310 311 311 311 310 308 308 308 308 306 305 303 302 302 301 299 298 297 297 297 296 294 292 290 287 283 279 273 262 256 253 245 231 218 211 208 206 209 221 233 238 242 249 256 265 273 278 284 292 297 302 309 313 318 328 336 337 335 336 341 345 345 346 351 358 6 13 19 22 23 24 23 22 20 19 18 18 19 19 18 16 14 15
311 311 312 312 311 310 309 308 308 308 307 306 304 303 303 303 302 300 298 298 297 297 296 293 290 288 284 280 276 267 255 251 249 239 223 215 210 206 204 207 218 228 232 236 244 252 261 268 275 282 290 294 299 306 312 318 327 335 336 332 332 338 343 345 345 348 355 3 9 16 21 23 24 24 24 22 21 20 19 18 19 19 19 17 16
312 312 312 311 310 309 308 308 308 307 306 305 304 303 303 303 301 300 299 298 297 295 293 290 287 284 281 277 273 262 248 245 243 234 221 214 210 205 202 206 216 223 226 230 239 249 257 263 270 277 285 290 295 304 311 317 326 333 333 330 329 334 341 344 344 346 352 359 6 12 19 22 24 25 25 24 23 22 21 19 19 19 19 19 17
312 312 311 310 309 308 308 308 307 306 305 305 304 304 303 302 301 299 299 297 295 291 289 286 283 281 277 273 268 256 243 240 238 230 220 214 210 204 203 206 212 218 222 228 237 246 251 256 263 272 280 285 292 301 310 315 323 330 331 328 326 330 338 342 342 344 349 355 2 8 15 20 23 24 25 26 25 24 22 21 20 19 19 18 18
312 312 311 309 308 307 307 307 306 305 305 305 304 303 302 301 299 298 297 295 291 287 285 282 280 277 273 269 263 249 238 236 233 225 218 215 210 205 203 206 210 214 219 226 233 238 243 251 261 270 277 282 289 299 307 312 319 326 329 325 322 326 335 340 340 342 346 352 358 4 10 17 21 23 25 25 26 25 24 23 22 21 20 19 17
311 311 310 308 307 307 307 306 305 305 305 305 304 302 301 299 297 295 294 292 288 285 283 281 278 274 268 263 256 242 233 231 228 222 217 214 211 206 205 207 209 212 217 224 228 231 239 250 260 268 274 280 288 296 302 308 316 323 326 323 319 322 331 337 338 339 343 348 354 360 6 12 19 22 24 25 26 26 25 24 23 22 21 20 19
311 310 309 307 306 306 306 306 305 305 305 304 303 301 298 296 294 293 292 289 286 284 282 279 276 271 264 256 247 235 229 228 227 222 216 213 210 208 207 207 208 211 217 223 227 229 238 250 259 265 271 277 285 292 297 304 313 320 323 320 316 317 328 335 335 336 339 344 350 356 2 8 15 20 23 24 25 25 25 25 25 24 22 21 20
311 310 308 306 306 307 306 306 305 304 303 302 300 298 297 295 294 292 290 288 285 284 282 278 273 267 259 250 239 229 225 225 225 221 214 210 209 209 208 208 209 212 218 224 228 231 239 250 257 262 267 273 280 287 293 300 310 317 320 317 313 314 324 331 332 333 336 340 346 352 358 3 10 17 21 23 24 25 25 25 25 25 24 22 21
Height
10655 10653 10650 10648 10645 10642 10639 10637 10634 10632 10629 10627 10624 10622 10619 10616 10612 10609 10607 10604 10601 10597 10594 10590 10586 10583 10579 10575 10572 10568 10565 10562 10558 10554 10551 10547 10543 10539 10535 10531 10527 10523 10518 10514 10509 10504 10498 10493 10486 10480 10473 10466 10458 10450 10442 10433 10425 10416 10408 10399 10389 10380 10371 10361 10353 10348 10343 10341 10340 10340 10342 10344 10346 10349 10352 10355 10358 10361 10363 10366 10367 10368 10369 10369 10370
10656 10653 10651 10648 10645 10643 10640 10637 10635 10632 10630 10628 10625 10622 10619 10616 10613 10610 10607 10604 10601 10598 10595 10591 10587 10583 10579 10576 10572 10568 10564 10561 10557 10553 10550 10546 10542 10538 10534 10530 10526 10521 10517 10512 10508 10502 10497 10491 10485 10479 10472 10465 10457 10449 10440 10432 10424 10415 10406 10396 10386 10377 10367 10358 10350 10344 10340 10337 10336 10337 10338 10340 10343 10346 10349 10353 10356 10358 10361 10363 10365 10367 10368 10369 10371
10656 10654 10651 10649 10646 10643 10641 10638 10636 10633 10631 10628 10626 10623 10619 10616 10613 10610 10607 10605 10602 10599 10595 10592 10588 10584 10580 10576 10572 10568 10564 10560 10556 10553 10549 10545 10541 10537 10533 10529 10524 10519 10515 10510 10506 10501 10495 10489 10483 10477 10471 10464 10456 10448 10439 10431 10423 10414 10404 10394 10384 10375 10365 10355 10347 10341 10337 10335 10334 10334 10335 10337 10340 10343 10347 10350 10353 10356 10358 10360 10363 10365 10367 10369 10371
10657 10654 10652 10649 10647 10644 10641 10639 10636 10634 10631 10629 10626 10623 10620 10616 10613 10610 10608 10605 10602 10598 10595 10592 10588 10585 10581 10577 10573 10568 10564 10560 10556 10552 10548 10544 10540 10535 10531 10527 10522 10517 10513 10508 10503 10499 10493 10488 10482 10476 10469 10462 10454 10446 10438 10430 10421 10412 10402 10392 10382 10372 10363 10353 10345 10339 10335 10332 10332 10332 10332 10334 10337 10340 10344 10347 10350 10353 10356 10358 10361 10363 10366 10368 10370
10658 10655 10652 10650 10647 10644 10642 10639 10636 10634 10631 10629 10626 10623 10620 10617 10613 10610 10607 10605 10601 10598 10595 10592 10588 10585 10581 10577 10573 10568 10564 10560 10556 10552 10548 10543 10539 10534 10529 10525 10520 10515 10511 10506 10502 10497 10492 10486 10480 10474 10467 10460 10453 10445 10437 10428 10419 10410 10401 10391 10381 10371 10361 10351 10343 10337 10333 10331 10330 10330 10330 10331 10334 10337 10341 10344 10348 10351 10354 10356 10359 10362 10364 10367 10369
10658 10656 10653 10651 10648 10645 10642 10639 10636 10634 10631 10629 10626 10623 10620 10617 10614 10610 10607 10604 10601 10598 10594 10591 10588 10584 10581 10577 10572 10568 10564 10560 10555 10551 10547 10543 10538 10533 10528 10523 10518 10514 10509 10504 10499 10495 10490 10485 10479 10472 10466 10459 10452 10444 10435 10426 10417 10408 10399 10389 10379 10369 10359 10350 10342 10336 10332 10329 10329 10328 10328 10329 10332 10335 10338 10342 10345 10349 10352 10355 10358 10360 10363 10366 10368
10658 10656 10654 10651 10648 10645 10642 10639 10636 10633 10631 10629 10626 10623 10620 10617 10614 10610 10607 10603 10600 10597 10594 10590 10587 10583 10580 10576 10572 10568 10563 10559 10555 10551 10547 10542 10537 10533 10528 10522 10517 10512 10507 10503 10498 10493 10488 10483 10477 10471 10465 10458 10451 10443 10434 10425 10416 10407 10398 10388 10378 10368 10359 10349 10341 10335 10331 10328 10327 10327 10326 10327 10330 10333 10336 10340 10343 10347 10351 10354 10356 10359 10362 10364 10367
10658 10656 10653 10651 10648 10645 10642 10639 10636 10633 10631 10628 10625 10623 10619 10616 10613 10610 10607 10603 10600 10596 10593 10589 10586 10582 10578 10575 10571 10567 10563 10558 10554 10550 10546 10541 10537 10532 10527 10522 10516 10511 10506 10501 10496 10491 10486 10480 10475 10469 10463 10457 10450 10442 10434 10425 10416 10407 10397 10388 10378 10368 10358 10349 10341 10335 10331 10328 10326 10326 10325 10326 10328 10331 10334 10338 10342 10345 10349 10352 10355 10358 10361 10363 10365
10657 10655 10653 10650 10648 10645 10641 10638 10636 10633 10631 10628 10625 10622 10619 10616 10613 10609 10606 10603 10599 10596 10592 10589 10585 10581 10577 10574 10570 10566 10562 10558 10553 10549 10545 10540 10536 10531 10526 10521 10516 10510 10505 10500 10494 10489 10484 10479 10473 10467 10461 10455 10448 10440 10433 10424 10415 10406 10397 10387 10377 10368 10358 10349 10341 10335 10331 10327 10326 10325 10325 10325 10327 10330 10333 10337 10340 10344 10348 10351 10354 10357 10359 10362 10365
10656 10654 10651 10649 10646 10643 10640 10637 10635 10632 10629 10627 10624 10621 10618 10615 10611 10608 10605 10602 10598 10595 10591 10588 10584 10580 10576 10572 10569 10565 10561 10557 10552 10548 10544 10540 10535 10531 10526 10521 10515 10510 10505 10499 10494 10488 10483 10477 10472 10466 10459 10453 10447 10439 10432 10423 10414 10405 10396 10387 10378 10369 10359 10350 10342 10336 10331 10327 10325 10324 10324 10325 10326 10328 10332 10335 10339 10342 10346 10349 10352 10355 10358 10361 10363
10655 10652 10650 10648 10645 10642 10639 10636 10633 10631 10628 10625 10623 10620 10616 10613 10610 10606 10603 10601 10598 10594 10590 10586 10583 10579 10575 10571 10567 10564 10560 10556 10552 10547 10543 10539 10535 10530 10525 10520 10515 10509 10504 10498 10493 10487 10482 10476 10471 10465 10459 10453 10446 10439 10431 10423 10414 10404 10396 10387 10378 10370 10361 10352 10343 10337 10332 10328 10326 10324 10324 10324 10325 10327 10330 10333 10337 10341 10344 10347 10351 10354 10356 10359 10362
10654 10651 10649 10646 10643 10640 10637 10634 10631 10629 10627 10624 10621 10618 10614 10611 10608 10605 10602 10599 10596 10592 10588 10584 10581 10577 10573 10569 10566 10562 10558 10554 10550 10546 10542 10538 10533 10529 10524 10519 10514 10508 10503 10497 10492 10486 10480 10475 10469 10464 10458 10452 10446 10438 10430 10422 10414 10405 10396 10387 10379 10370 10362 10353 10345 10338 10332 10328 10326 10325 10324 10324 10325 10326 10328 10332 10335 10339 10343 10346 10349 10352 10355 10358 10361
10653 10650 10647 10645 10642 10639 10636 10633 10630 10627 10625 10622 10619 10616 10613 10610 10607 10604 10601 10597 10594 10590 10586 10582 10579 10575 10571 10568 10564 10560 10556 10553 10549 10545 10540 10536 10532 10527 10522 10518 10513 10507 10502 10497 10491 10485 10479 10474 10468 10462 10457 10451 10445 10438 10430 10422 10414 10405 10397 10388 10379 10371 10363 10355 10346 10339 10334 10329 10327 10325 10324 10324 10325 10326 10328 10331 10334 10338 10341 10344 10347 10351 10354 10357 10360
10651 10648 10645 10643 10640 10637 10634 10631 10629 10625 10623 10620 10617 10614 10611 10608 10605 10602 10599 10595 10592 10588 10584 10580 10577 10574 10570 10566 10562 10558 10554 10551 10547 10543 10539 10534 10530 10526 10521 10516 10511 10506 10501 10496 10490 10485 10479 10473 10467 10462 10456 10450 10444 10438 10430 10422 10414 10406 10398 10389 10380 10372 10365 10357 10348 10341 10335 10331 10328 10326 10325 10324 10325 10326 10327 10330 10333 10336 10340 10343 10346 10350 10353 10356 10358
10649 10646 10643 10640 10638 10635 10632 10630 10627 10624 10620 10617 10614 10612 10609 10606 10603 10600 10597 10593 10590 10586 10582 10578 10575 10571 10568 10564 10560 10556 10552 10548 10544 10541 10537 10533 10528 10524 10519 10515 10510 10505 10500 10495 10490 10484 10478 10472 10467 10461 10456 10450 10444 10437 10430 10423 10414 10406 10398 10390 10381 10373 10366 10359 10351 10343 10337 10332 10329 10327 10326 10325 10325 10325 10326 10328 10331 10334 10338 10342 10346 10348 10351 10354 10357
10647 10644 10641 10638 10636 10633 10630 10628 10625 10622 10619 10615 10612 10608 10606 10603 10600 10597 10595 10592 10588 10585 10581 10576 10573 10569 10566 10562 10558 10554 10549 10545 10542 10538 10535 10531 10526 10522 10518 10513 10509 10504 10499 10494 10489 10484 10478 10472 10466 10461 10456 10450 10444 10437 10430 10423 10415 10407 10399 10391 10383 10375 10368 10360 10353 10346 10339 10334 10331 10328 10327 10326 10325 10325 10325 10327 10330 10333 10336 10340 10344 10346 10349 10353 10356
10645 10642 10639 10636 10634 10631 10628 10626 10623 10620 10617 10614 10610 10606 10603 10600 10597 10594 10592 10589 10587 10583 10579 10575 10571 10567 10564 10560 10556 10552 10547 10543 10540 10536 10533 10529 10525 10521 10516 10512 10507 10503 10498 10493 10488 10483 10478 10472 10466 10460 10455 10450 10444 10438 10431 10423 10416 10408 10400 10393 10385 10377 10370 10362 10355 10348 10342 10336 10332 10330 10328 10326 10325 10325 10325 10326 10329 10332 10335 10338 10342 10345 10348 10351 10354
10642 10639 10636 10633 10631 10628 10626 10623 10621 10618 10615 10612 10608 10604 10601 10597 10594 10591 10589 10586 10584 10581 10577 10573 10568 10564 10561 10557 10553 10549 10545 10541 10538 10534 10531 10527 10523 10519 10515 10511 10506 10502 10497 10492 10487 10483 10478 10472 10466 10460 10455 10450 10445 10439 10432 10425 10417 10410 10403 10395 10387 10379 10372 10365 10358 10350 10344 10338 10334 10331 10329 10327 10326 10325 10325 10326 10328 10330 10333 10336 10340 10343 10346 10349 10352
10639 10636 10633 10630 10628 10625 10623 10620 10617 10615 10612 10610 10606 10602 10598 10595 10591 10589 10586 10583 10580 10577 10574 10571 10567 10562 10558 10554 10551 10547 10542 10538 10535 10532 10528 10525 10521 10517 10513 10509 10505 10500 10496 10491 10487 10482 10477 10472 10466 10461 10455 10451 10445 10440 10433 10427 10419 10412 10405 10397 10389 10381 10374 10368 10361 10353 10346 10340 10335 10332 10330 10329 10327 10326 10326 10326 10327 10329 10332 10335 10338 10341 10344 10347 10350
10635 10632 10629 10626 10623 10621 10619 10617 10614 10611 10608 10605 10603 10599 10596 10592 10589 10586 10583 10580 10577 10573 10570 10567 10564 10560 10555 10551 10548 10544 10540 10536 10532 10528 10525 10522 10519 10515 10511 10507 10503 10499 10495 10490 10486 10482 10477 10472 10467 10461 10456 10451 10446 10440 10434 10428 10421 10414 10407 10399 10391 10384 10376 10370 10363 10355 10348 10342 10337 10333 10331 10329 10328 10327 10326 10326 10327 10328 10331 10333 10336 10338 10341 10345 10348
10631 10628 10625 10622 10619 10616 10613 10611 10609 10607 10604 10601 10598 10595 10592 10590 10586 10583 10580 10576 10573 10570 10566 10563 10560 10557 10552 10548 10544 10541 10538 10533 10529 10525 10522 10519 10516 10512 10508 10505 10501 10497 10493 10489 10485 10481 10477 10472 10467 10461 10456 10451 10446 10440 10434 10428 10422 10415 10409 10401 10394 10386 10379 10371 10365 10357 10350 10344 10339 10335 10332 10330 10329 10328 10327 10326 10327 10328 10330 10332 10334 10337 10339 10342 10345
10627 10625 10621 10618 10615 10612 10609 10606 10603 10600 10598 10596 10593 10590 10588 10585 10582 10579 10576 10573 10569 10566 10562 10559 10556 10553 10549 10545 10541 10538 10535 10531 10526 10522 10519 10516 10513 10510 10506 10502 10499 10496 10492 10488 10483 10479 10476 10471 10466 10461 10456 10452 10446 10441 10435 10429 10423 10416 10410 10403 10396 10388 10380 10373 10366 10359 10352 10346 10341 10336 10333 10331 10329 10328 10327 10327 10327 10328 10329 10330 10332 10335 10338 10340 10343
10624 10621 10617 10614 10611 10608 10605 10601 10598 10595 10592 10590 10587 10585 10582 10579 10577 10574 10572 10569 10565 10562 10558 10555 10552 10549 10546 10542 10538 10534 10531 10528 10524 10520 10516 10512 10510 10507 10503 10500 10497 10494 10490 10486 10482 10478 10474 10470 10466 10461 10456 10451 10447 10441 10436 10430 10424 10418 10411 10405 10398 10390 10382 10375 10368 10361 10354 10348 10342 10338 10334 10332 10330 10329 10327 10327 10327 10327 10328 10329 10330 10333 10336 10338 10341
10619 10616 10613 10609 10606 10602 10599 10596 10593 10590 10587 10584 10582 10579 10576 10574 10571 10568 10567 10564 10561 10557 10554 10551 10547 10544 10542 10539 10535 10530 10527 10524 10521 10517 10514 10509 10506 10504 10501 10497 10494 10491 10488 10484 10480 10476 10473 10469 10465 10460 10455 10451 10447 10442 10436 10431 10425 10419 10413 10406 10399 10392 10384 10377 10370 10363 10356 10350 10344 10339 10335 10332 10330 10329 10328 10326 10326 10326 10327 10327 10329 10331 10333 10336 10338
10615 10612 10608 10604 10601 10597 10594 10590 10587 10585 10582 10579 10576 10573 10570 10567 10564 10562 10560 10559 10556 10553 10550 10547 10543 10540 10537 10534 10531 10526 10523 10520 10517 10514 10511 10507 10503 10500 10498 10495 10491 10489 10486 10482 10479 10475 10472 10468 10464 10459 10455 10450 10446 10442 10437 10432 10426 10420 10414 10408 10401 10394 10386 10379 10372 10365 10358 10352 10346 10341 10336 10332 10330 10329 10328 10327 10326 10325 10325 10326 10327 10329 10330 10332 10335
10612 10608 10604 10600 10596 10592 10588 10585 10581 10578 10575 10573 10570 10567 10564 10561 10558 10555 10553 10552 10550 10548 10546 10542 10538 10535 10532 10529 10526 10522 10519 10516 10512 10509 10507 10504 10500 10496 10494 10492 10489 10486 10483 10480 10477 10473 10470 10467 10463 10459 10454 10450 10446 10442 10438 10432 10427 10421 10416 10410 10403 10396 10389 10381 10374 10367 10360 10354 10348 10343 10338 10334 10330 10328 10327 10326 10325 10325 10324 10325 10325 10327 10328 10330 10332
10610 10606 10602 10597 10593 10589 10584 10579 10575 10571 10568 10565 10562 10559 10556 10553 10551 10547 10545 10544 10542 10541 10540 10537 10533 10529 10526 10524 10521 10517 10514 10511 10508 10505 10503 10500 10496 10493 10490 10488 10486 10483 10481 10478 10475 10471 10468 10466 10462 10458 10453 10449 10445 10442 10438 10433 10428 10422 10417 10411 10405 10398 10391 10383 10376 10369 10362 10356 10349 10344 10339 10335 10331 10328 10327 10326 10325 10324 10323 10323 10324 10325 10326 10327 10329
10605 10602 10598 10594 10590 10586 10582 10577 10572 10568 10563 10559 10555 10551 10548 10545 10543 10540 10537 10535 10533 10532 10532 10530 10527 10523 10520 10517 10515 10512 10508 10506 10503 10500 10498 10496 10493 10489 10487 10484 10482 10480 10478 10475 10473 10470 10467 10464 10461 10457 10453 10448 10445 10441 10438 10434 10428 10423 10418 10412 10406 10399 10392 10385 10378 10371 10365 10358 10351 10345 10340 10335 10332 10329 10327 10325 10324 10323 10323 10322 10322 10323 10324 10325 10327
10599 10596 10593 10590 10586 10582 10578 10574 10570 10566 10561 10555 10550 10546 10542 10539 10536 10534 10531 10528 10525 10522 10521 10521 10520 10517 10514 10510 10508 10506 10502 10500 10498 10495 10493 10491 10489 10486 10483 10481 10478 10477 10475 10473 10470 10467 10465 10462 10459 10456 10452 10448 10444 10441 10437 10434 10429 10424 10418 10413 10408 10401 10394 10387 10380 10373 10367 10360 10353 10347 10341 10336 10332 10329 10326 10325 10323 10322 10322 10321 10321 10321 10322 10323 10324
10592 10589 10585 10582 10579 10576 10572 10568 10564 10561 10557 10551 10546 10541 10536 10532 10529 10527 10525 10522 10518 10515 10512 10510 10510 10510 10507 10504 10501 10499 10496 10493 10491 10489 10488 10486 10484 10481 10479 10477 10475 10473 10472 10470 10467 10465 10463 10460 10457 10454 10451 10447 10444 10440 10437 10433 10429 10424 10419 10414 10409 10403 10396 10389 10382 10375 10368 10362 10356 10349 10342 10336 10332 10328 10326 10324 10323 10322 10321 10320 10320 10320 10320 10321 10322
10584 10580 10576 10573 10570 10567 10563 10559 10555 10552 10548 10544 10540 10536 10531 10527 10522 10519 10516 10514 10510 10507 10504 10500 10499 10499 10498 10496 10493 10491 10489 10486 10484 10482 10481 10480 10478 10477 10475 10473 10471 10470 10468 10467 10464 10462 10460 10458 10455 10453 10450 10446 10443 10439 10436 10432 10428 10424 10419 10415 10410 10404 10398 10391 10383 10376 10369 10363 10358 10351 10344 10338 10333 10329 10326 10324 10322 10321 10320 10320 10319 10319 10319 10319 10320
10576 10572 10568 10564 10560 10557 10553 10550 10546 10542 10538 10535 10532 10529 10526 10521 10515 10510 10507 10504 10501 10498 10495 10492 10489 10488 10487 10486 10485 10483 10481 10479 10476 10475 10474 10473 10472 10471 10469 10468 10466 10465 10465 10463 10461 10459 10457 10455 10453 10451 10448 10445 10442 10439 10435 10431 10428 10424 10420 10415 10411 10406 10399 10393 10385 10378 10371 10365 10359 10352 10346 10340 10334 10329 10326 10323 10322 10320 10319 10319 10318 10318 10318 10318 10318
10567 10564 10561 10557 10553 10548 10545 10541 10537 10533 10529 10526 10523 10520 10517 10513 10508 10502 10497 10493 10490 10488 10484 10481 10479 10477 10476 10475 10475 10474 10472 10470 10469 10467 10467 10466 10465 10465 10463 10462 10461 10461 10460 10459 10458 10456 10454 10452 10451 10449 10446 10444 10441 10438 10434 10431 10427 10424 10420 10416 10412 10407 10401 10394 10387 10380 10373 10366 10360 10353 10347 10341 10336 10331 10327 10324 10321 10320 10319 10318 10317 10317 10316 10316 10317
10558 10555 10552 10548 10545 10541 10536 10532 10529 10525 10521 10517 10513 10509 10505 10502 10499 10494 10488 10483 10479 10476 10473 10470 10468 10466 10464 10464 10464 10464 10463 10462 10460 10459 10459 10458 10458 10458 10457 10456 10456 10456 10456 10455 10454 10453 10451 10450 10448 10446 10444 10442 10440 10437 10433 10430 10427 10423 10420 10416 10412 10408 10402 10396 10389 10381 10374 10368 10361 10355 10349 10343 10337 10332 10327 10324 10322 10320 10318 10317 10316 10316 10316 10315 10315
10550 10546 10542 10539 10536 10532 10528 10524 10520 10516 10512 10508 10503 10499 10495 10490 10487 10483 10478 10473 10468 10464 10461 10458 10457 10455 10453 10452 10452 10453 10453 10452 10452 10451 10450 10450 10451 10451 10451 10451 10451 10451 10451 10451 10450 10449 10448 10447 10445 10444 10442 10440 10438 10435 10432 10429 10426 10423 10419 10415 10412 10408 10403 10397 10390 10383 10376 10369 10363 10357 10351 10345 10339 10334 10329 10325 10322 10320 10318 10316 10316 10315 10315 10314 10314
10542 10538 10533 10529 10526 10522 10518 10514 10510 10507 10503 10499 10495 10490 10485 10480 10475 10470 10466 10462 10457 10452 10449 10447 10445 10444 10442 10441 10441 10442 10442 10443 10442 10441 10441 10442 10443 10443 10444 10445 10446 10446 10447 10447 10446 10446 10445 10444 10443 10441 10440 10438 10436 10433 10431 10428 10425 10422 10419 10415 10412 10408 10404 10398 10391 10384 10377 10371 10365 10359 10353 10347 10341 10335 10330 10326 10323 10320 10318 10316 10315 10314 10314 10313 10313
10533 10528 10524 10520 10516 10512 10507 10503 10498 10495 10491 10488 10484 10480 10475 10468 10462 10456 10453 10449 10445 10441 10437 10435 10434 10433 10432 10430 10430 10431 10432 10432 10432 10432 10432 10433 10435 10435 10437 10439 10440 10441 10442 10442 10442 10442 10441 10440 10439 10439 10437 10435 10433 10431 10429 10427 10424 10421 10418 10415 10411 10408 10404 10399 10393 10386 10379 10373 10367 10361 10355 10349 10343 10337 10332 10328 10324 10321 10319 10317 10315 10314 10313 10313 10312
10523 10518 10513 10509 10505 10501 10496 10492 10487 10482 10478 10474 10470 10466 10462 10456 10449 10442 10438 10435 10432 10429 10426 10424 10423 10423 10421 10421 10421 10422 10422 10422 10422 10422 10423 10425 10427 10428 10430 10433 10435 10436 10437 10438 10438 10438 10437 10437 10436 10436 10434 10433 10431 10429 10427 10426 10423 10421 10418 10415 10411 10408 10405 10400 10395 10388 10381 10374 10368 10362 10356 10351 10345 10339 10334 10329 10325 10322 10319 10317 10316 10314 10313 10312 10312
10512 10507 10502 10497 10493 10489 10485 10481 10476 10471 10465 10460 10455 10450 10447 10442 10437 10430 10424 10421 10419 10417 10414 10413 10412 10412 10412 10412 10412 10412 10413 10413 10413 10414 10415 10417 10419 10422 10424 10427 10429 10431 10432 10433 10434 10434 10433 10433 10433 10432 10431 10430 10429 10427 10425 10424 10422 10420 10417 10414 10411 10408 10405 10401 10396 10390 10383 10376 10370 10364 10358 10352 10347 10341 10336 10331 10327 10323 10320 10318 10316 10315 10314 10313 10312
10502 10496 10490 10485 10480 10476 10471 10466 10461 10456 10451 10445 10440 10435 10431 10428 10424 10419 10413 10409 10407 10406 10404 10403 10402 10403 10403 10403 10403 10404 10405 10405 10405 10406 10408 10410 10413 10416 10419 10422 10424 10425 10427 10428 10429 10429 10430 10430 10430 10429 10428 10427 10426 10425 10424 10422 10421 10418 10416 10413 10410 10408 10405 10401 10397 10392 10385 10379 10372 10366 10360 10354 10348 10343 10338 10333 10328 10325 10321 10319 10317 10315 10314 10313 10312
10492 10486 10480 10474 10469 10464 10458 10453 10446 10441 10436 10431 10426 10421 10418 10415 10411 10408 10403 10399 10397 10396 10395 10394 10394 10394 10395 10395 10395 10397 10398 10398 10398 10399 10401 10404 10407 10410 10414 10417 10419 10421 10422 10424 10425 10425 10426 10427 10427 10426 10425 10424 10423 10423 10422 10420 10419 10417 10415 10412 10410 10407 10405 10402 10398 10393 10387 10381 10374 10368 10363 10357 10351 10345 10340 10335 10331 10327 10323 10320 10318 10316 10315 10314 10313
10481 10476 10471 10466 10460 10454 10448 10441 10434 10428 10423 10419 10414 10409 10405 10403 10400 10397 10393 10390 10388 10388 10387 10386 10386 10387 10387 10387 10388 10390 10391 10391 10391 10392 10395 10398 10401 10405 10409 10412 10414 10416 10418 10419 10420 10421 10423 10423 10423 10423 10422 10422 10421 10420 10419 10418 10417 10416 10414 10411 10409 10407 10404 10402 10398 10394 10389 10383 10377 10371 10365 10360 10353 10347 10342 10337 10333 10329 10325 10322 10319 10317 10316 10314 10313
10471 10466 10461 10456 10449 10442 10435 10427 10421 10416 10411 10407 10403 10398 10394 10392 10390 10387 10384 10382 10380 10380 10380 10379 10378 10379 10380 10380 10381 10383 10384 10383 10384 10386 10389 10392 10396 10400 10403 10407 10409 10412 10413 10415 10416 10417 10419 10420 10420 10419 10419 10419 10418 10418 10417 10416 10416 10414 10412 10410 10408 10406 10404 10401 10398 10394 10390 10385 10379 10373 10367 10362 10356 10350 10345 10340 10335 10331 10327 10324 10321 10319 10317 10316 10314
10459 10454 10449 10443 10436 10428 10420 10414 10409 10405 10401 10397 10392 10388 10385 10383 10381 10379 10377 10375 10373 10373 10373 10372 10372 10372 10373 10373 10375 10377 10377 10376 10378 10381 10384 10386 10390 10394 10398 10401 10404 10407 10409 10410 10412 10413 10415 10417 10416 10416 10416 10416 10416 10415 10415 10414 10414 10413 10411 10409 10407 10405 10403 10401 10398 10395 10391 10386 10380 10375 10369 10364 10359 10353 10348 10343 10337 10333 10329 10326 10323 10321 10319 10317 10316
10447 10442 10436 10430 10422 10414 10407 10402 10398 10395 10391 10387 10383 10379 10377 10375 10373 10371 10370 10369 10367 10367 10366 10366 10365 10366 10366 10367 10368 10370 10371 10370 10372 10375 10378 10380 10384 10389 10393 10396 10399 10402 10405 10406 10407 10409 10411 10413 10413 10413 10413 10413 10413 10413 10412 10412 10411 10411 10409 10408 10406 10404 10402 10400 10398 10395 10391 10387 10382 10377 10371 10366 10361 10356 10351 10346 10341 10335 10331 10327 10325 10322 10320 10318 10317
10436 10430 10424 10417 10410 10403 10397 10393 10388 10385 10382 10379 10375 10372 10370 10368 10366 10364 10363 10363 10362 10361 10360 10359 10359 10359 10360 10361 10362 10365 10365 10365 10367 10370 10372 10375 10379 10384 10388 10391 10394 10398 10400 10402 10403 10405 10408 10409 10409 10409 10410 10410 10410 10410 10410 10409 10409 10409 10408 10406 10405 10403 10401 10400 10398 10395 10392 10388 10384 10379 10373 10368 10364 10359 10354 10349 10344 10339 10334 10330 10326 10324 10322 10320 10318
10424 10418 10411 10404 10397 10392 10389 10385 10380 10376 10374 10371 10369 10366 10363 10362 10360 10358 10358 10357 10356 10355 10354 10353 10353 10354 10354 10355 10357 10359 10360 10360 10362 10365 10368 10371 10375 10379 10383 10386 10389 10393 10395 10397 10399 10402 10404 10406 10406 10406 10406 10407 10407 10407 10407 10407 10407 10407 10406 10405 10403 10402 10400 10399 10397 10395 10392 10389 10385 10381 10376 10371 10366 10361 10356 10351 10346 10342 10337 10333 10329 10325 10323 10321 10320
10412 10406 10399 10392 10387 10383 10380 10377 10373 10370 10367 10365 10363 10360 10358 10356 10355 10353 10352 10351 10350 10349 10348 10348 10348 10348 10349 10350 10352 10354 10354 10355 10358 10361 10363 10366 10370 10374 10378 10381 10385 10388 10391 10393 10395 10398 10400 10402 10402 10402 10403 10404 10404 10405 10404 10404 10404 10404 10404 10403 10402 10400 10399 10398 10396 10395 10392 10389 10386 10382 10378 10373 10368 10363 10358 10354 10349 10345 10340 10336 10331 10328 10325 10323 10321
10402 10396 10389 10382 10378 10375 10372 10369 10366 10363 10361 10358 10356 10354 10353 10351 10349 10348 10347 10346 10344 10343 10343 10343 10343 10344 10344 10345 10347 10349 10350 10351 10353 10356 10359 10362 10366 10370 10373 10376 10380 10384 10386 10388 10391 10394 10396 10397 10398 10398 10399 10400 10401 10402 10402 10402 10402 10402 10402 10401 10400 10399 10398 10396 10395 10394 10392 10389 10386 10383 10379 10375 10370 10365 10360 10356 10352 10347 10343 10338 10334 10330 10327 10325 10322
10391 10385 10379 10373 10370 10367 10365 10362 10360 10357 10355 10352 10350 10349 10347 10346 10345 10343 10342 10340 10338 10338 10338 10338 10339 10339 10340 10341 10342 10344 10345 10346 10348 10351 10355 10359 10363 10366 10369 10373 10376 10380 10382 10384 10386 10389 10392 10393 10394 10395 10396 10397 10398 10399 10399 10399 10400 10400 10399 10399 10398 10397 10396 10395 10394 10393 10391 10389 10387 10384 10381 10376 10372 10367 10362 10358 10354 10350 10345 10341 10337 10332 10329 10326 10324
10381 10375 10369 10364 10362 10360 10358 10355 10353 10351 10349 10347 10345 10343 10342 10341 10340 10339 10337 10335 10333 10333 10334 10334 10335 10335 10336 10336 10338 10339 10340 10342 10345 10348 10352 10356 10360 10363 10366 10369 10373 10376 10378 10380 10382 10385 10388 10389 10390 10391 10393 10394 10395 10396 10396 10397 10397 10397 10397 10397 10396 10396 10395 10394 10393 10392 10390 10389 10386 10384 10381 10378 10374 10369 10364 10360 10356 10352 10348 10344 10340 10335 10331 10328 10325